Le nostre stazioni meteo in Italia

Pubblicità
Il mio iltempo24.it
Cuneo Levaldigi, Italia (16117): Temperatura & dewpoint: 29.05.2020 20:00:00 - 04.06.2020 20:00:00 (CEST)Cuneo Levaldigi, Italia (16117): velocità del vento: 29.05.2020 20:00:00 - 04.06.2020 20:00:00 (CEST)Cuneo Levaldigi, Italia (16117): direzione del vento: 29.05.2020 20:00:00 - 04.06.2020 20:00:00 (CEST)Cuneo Levaldigi, Italia (16117): visibility: 29.05.2020 20:00:00 - 04.06.2020 20:00:00 (CEST)
Data & Tempo tt [°C] td [°C] ff [km/h] ff [kn] dd vv [km]
04.06.2020 20:00:00 17,0 15,0 5 3 NE 10
04.06.2020 19:00:00 17,0 15,0 5 3 E 10
04.06.2020 18:00:00 17,0 16,0 15 8 SE 10
04.06.2020 17:00:00 17,0 15,0 5 3 SE 10
04.06.2020 16:00:00 18,0 14,0 4 2 - 10
04.06.2020 15:00:00 - - - - - -
04.06.2020 14:00:00 18,0 15,0 8 4 NNE 10
04.06.2020 13:00:00 18,0 14,0 5 3 E 10
04.06.2020 12:00:00 18,0 14,0 4 2 - 10
04.06.2020 11:00:00 16,0 15,0 2 1 - 9
04.06.2020 10:00:00 16,0 15,0 2 1 - 7
04.06.2020 09:00:00 15,0 15,0 5 3 S 5
04.06.2020 08:00:00 15,0 14,0 2 1 - 5
04.06.2020 07:00:00 15,0 14,0 2 1 - 5
04.06.2020 06:00:00 - - - - - -
04.06.2020 05:00:00 - - - - - -
04.06.2020 04:00:00 - - - - - -
04.06.2020 03:00:00 - - - - - -
04.06.2020 02:00:00 - - - - - -
04.06.2020 01:00:00 - - - - - -
04.06.2020 00:00:00 - - - - - -
03.06.2020 23:00:00 - - - - - -
03.06.2020 22:00:00 - - - - - -
03.06.2020 21:00:00 17,0 15,0 13 7 N 10
03.06.2020 20:00:00 19,0 16,0 21 11 NO 10
03.06.2020 19:00:00 19,0 17,0 11 6 SE 10
03.06.2020 18:00:00 16,0 15,0 15 8 SSO 10
03.06.2020 17:00:00 22,0 13,0 29 16 S 10
03.06.2020 16:00:00 24,0 17,0 15 8 ENE 10
03.06.2020 15:00:00 24,0 16,0 13 7 N 10
03.06.2020 14:00:00 24,0 17,0 9 5 N 10
03.06.2020 13:00:00 23,0 15,0 11 6 ENE 10
03.06.2020 12:00:00 22,0 16,0 11 6 ENE 10
03.06.2020 11:00:00 21,0 15,0 5 3 ENE 10
03.06.2020 10:00:00 20,0 14,0 8 4 ENE 10
03.06.2020 09:00:00 19,0 14,0 8 4 NNE 10
03.06.2020 08:00:00 18,0 14,0 2 1 - 10
03.06.2020 07:00:00 - - - - - -
03.06.2020 06:00:00 - - - - - -
03.06.2020 05:00:00 - - - - - -
03.06.2020 04:00:00 - - - - - -
03.06.2020 03:00:00 - - - - - -
03.06.2020 02:00:00 - - - - - -
03.06.2020 01:00:00 - - - - - -
03.06.2020 00:00:00 - - - - - -
02.06.2020 23:00:00 - - - - - -
02.06.2020 22:00:00 - - - - - -
02.06.2020 21:00:00 19,0 16,0 8 4 SSE 10
02.06.2020 20:00:00 23,0 16,0 4 2 - 10
02.06.2020 19:00:00 25,0 14,0 5 3 ENE 10
02.06.2020 18:00:00 27,0 10,0 8 4 - 10
02.06.2020 17:00:00 28,0 8,0 5 3 - 10
02.06.2020 16:00:00 28,0 10,0 8 4 SE 10
02.06.2020 15:00:00 26,0 12,0 8 4 E 10
02.06.2020 14:00:00 26,0 12,0 8 4 SSO 10
02.06.2020 13:00:00 25,0 13,0 5 3 - 10
02.06.2020 12:00:00 24,0 13,0 9 5 E 10
02.06.2020 11:00:00 23,0 15,0 5 3 - 10
02.06.2020 10:00:00 23,0 14,0 2 1 - 10
02.06.2020 09:00:00 20,0 14,0 4 2 - 10
02.06.2020 08:00:00 18,0 15,0 5 3 SSO 10
02.06.2020 07:00:00 - - - - - -
02.06.2020 06:00:00 - - - - - -
02.06.2020 05:00:00 - - - - - -
02.06.2020 04:00:00 - - - - - -
02.06.2020 03:00:00 - - - - - -
02.06.2020 02:00:00 - - - - - -
02.06.2020 01:00:00 - - - - - -
02.06.2020 00:00:00 - - - - - -
01.06.2020 23:00:00 - - - - - -
01.06.2020 22:00:00 18,0 15,0 8 4 S 8
01.06.2020 21:00:00 20,0 14,0 8 4 ESE 10
01.06.2020 20:00:00 22,0 15,0 9 5 ENE 10
01.06.2020 19:00:00 23,0 13,0 5 3 NNE 10
01.06.2020 18:00:00 24,0 12,0 4 2 - 10
01.06.2020 17:00:00 24,0 13,0 5 3 N 10
01.06.2020 16:00:00 24,0 14,0 9 5 E 10
01.06.2020 15:00:00 23,0 13,0 5 3 - 10
01.06.2020 14:00:00 23,0 14,0 5 3 - 10
01.06.2020 13:00:00 22,0 13,0 5 3 - 10
01.06.2020 12:00:00 21,0 14,0 5 3 - 10
01.06.2020 11:00:00 20,0 15,0 5 3 - 10
01.06.2020 10:00:00 18,0 13,0 8 4 NNO 9
01.06.2020 09:00:00 19,0 14,0 4 2 - 9
01.06.2020 08:00:00 15,0 14,0 4 2 - 8
01.06.2020 07:00:00 14,0 13,0 4 2 OSO 8
01.06.2020 06:00:00 - - - - - -
01.06.2020 05:00:00 - - - - - -
01.06.2020 04:00:00 - - - - - -
01.06.2020 03:00:00 - - - - - -
01.06.2020 02:00:00 - - - - - -
01.06.2020 01:00:00 - - - - - -
01.06.2020 00:00:00 - - - - - -
31.05.2020 23:00:00 - - - - - -
31.05.2020 22:00:00 - - - - - -
31.05.2020 21:00:00 19,0 12,0 2 1 - 10
31.05.2020 20:00:00 21,0 12,0 4 2 - 10
31.05.2020 19:00:00 21,0 11,0 2 1 - 10
31.05.2020 18:00:00 21,0 11,0 5 3 - 10
31.05.2020 17:00:00 21,0 11,0 5 3 NO 10
31.05.2020 16:00:00 21,0 12,0 8 4 NNE 10
31.05.2020 15:00:00 21,0 12,0 5 3 SE 10
31.05.2020 14:00:00 20,0 12,0 8 4 N 10
31.05.2020 13:00:00 18,0 12,0 9 5 NNE 8
31.05.2020 12:00:00 18,0 12,0 5 3 - 8
31.05.2020 11:00:00 16,0 13,0 9 5 N 8
31.05.2020 10:00:00 15,0 12,0 8 4 NE 5
31.05.2020 09:00:00 14,0 13,0 9 5 N 5
31.05.2020 08:00:00 14,0 13,0 5 3 N 5
31.05.2020 07:00:00 14,0 13,0 8 4 N 5
31.05.2020 06:00:00 - - - - - -
31.05.2020 05:00:00 - - - - - -
31.05.2020 04:00:00 - - - - - -
31.05.2020 03:00:00 - - - - - -
31.05.2020 02:00:00 - - - - - -
31.05.2020 01:00:00 - - - - - -
31.05.2020 00:00:00 - - - - - -
30.05.2020 23:00:00 - - - - - -
30.05.2020 22:00:00 - - - - - -
30.05.2020 21:00:00 19,0 11,0 11 6 ENE 10
30.05.2020 20:00:00 21,0 10,0 9 5 NE 10
30.05.2020 19:00:00 22,0 6,0 8 4 NE 10
30.05.2020 18:00:00 23,0 7,0 5 3 ENE 10
30.05.2020 17:00:00 23,0 9,0 8 4 NE 10
30.05.2020 16:00:00 23,0 5,0 5 3 - 10
30.05.2020 15:00:00 23,0 7,0 5 3 - 10
30.05.2020 14:00:00 21,0 5,0 11 6 NE 10
30.05.2020 13:00:00 21,0 9,0 11 6 ENE 10
30.05.2020 12:00:00 20,0 8,0 11 6 E 10
30.05.2020 11:00:00 19,0 9,0 5 3 - 10
30.05.2020 10:00:00 18,0 9,0 4 2 - 10
30.05.2020 09:00:00 15,0 10,0 4 2 - 10
30.05.2020 08:00:00 12,0 10,0 5 3 S 10
30.05.2020 07:00:00 10,0 9,0 5 3 SO 10
30.05.2020 06:00:00 - - - - - -
30.05.2020 05:00:00 - - - - - -
30.05.2020 04:00:00 - - - - - -
30.05.2020 03:00:00 - - - - - -
30.05.2020 02:00:00 - - - - - -
30.05.2020 01:00:00 - - - - - -
30.05.2020 00:00:00 - - - - - -
29.05.2020 23:00:00 - - - - - -
29.05.2020 22:00:00 13,0 11,0 5 3 S 10
29.05.2020 21:00:00 15,0 10,0 4 2 O 10
29.05.2020 20:00:00 17,0 9,0 8 4 O 10

tt = Temperatura
td = dewpoint
ff = velocità del vento
dd = direzione del vento
vv = visibility

Stazioni seguenti

WeatherPro
AMSI
MeteoEarth